Time,TemperatureF,DewpointF,PressureIn,WindDirection,WindDirectionDegrees,WindSpeedMPH,WindSpeedGustMPH,Humidity,HourlyPrecipIn,Conditions,Clouds,dailyrainin,SoftwareType,DateUTC
2015-04-27 00:01:00,42.2,37.1,29.95,West,275,0.0,0.0,82,0.00,,---,0.00,VWS V15.00,2015-04-27 04:01:00,
2015-04-27 00:11:00,41.8,37.0,29.96,West,275,0.0,0.0,83,0.00,,---,0.00,VWS V15.00,2015-04-27 04:11:00,
2015-04-27 00:21:00,41.5,37.0,29.96,West,275,0.0,0.0,84,0.00,,---,0.00,VWS V15.00,2015-04-27 04:21:00,
2015-04-27 00:31:00,41.1,36.9,29.96,West,275,0.0,1.0,85,0.00,,---,0.00,VWS V15.00,2015-04-27 04:31:00,
2015-04-27 00:41:00,40.7,36.5,29.96,West,275,0.0,0.0,85,0.00,,---,0.00,VWS V15.00,2015-04-27 04:41:00,
2015-04-27 00:51:00,40.3,36.5,29.96,West,275,0.0,0.0,86,0.00,,---,0.00,VWS V15.00,2015-04-27 04:51:00,
2015-04-27 01:01:00,39.9,36.3,29.96,West,275,0.0,0.0,87,0.00,,---,0.00,VWS V15.00,2015-04-27 05:01:00,
2015-04-27 01:11:00,39.6,36.3,29.96,West,275,0.0,0.0,88,0.00,,---,0.00,VWS V15.00,2015-04-27 05:11:00,
2015-04-27 01:21:00,39.6,36.9,29.97,West,275,0.0,0.0,90,0.00,,---,0.00,VWS V15.00,2015-04-27 05:21:00,
2015-04-27 01:31:00,39.4,36.7,29.97,West,275,0.0,0.0,90,0.00,,---,0.00,VWS V15.00,2015-04-27 05:31:00,
2015-04-27 01:41:00,39.2,36.5,29.97,West,275,0.0,0.0,90,0.00,,---,0.00,VWS V15.00,2015-04-27 05:41:00,
2015-04-27 01:51:00,38.9,36.2,29.96,West,275,0.0,0.0,90,0.00,,---,0.00,VWS V15.00,2015-04-27 05:51:00,
2015-04-27 02:01:00,38.7,36.0,29.96,West,275,0.0,0.0,90,0.00,,---,0.00,VWS V15.00,2015-04-27 06:01:00,
2015-04-27 02:11:00,38.4,36.0,29.97,West,275,0.0,1.0,91,0.00,,---,0.00,VWS V15.00,2015-04-27 06:11:00,
2015-04-27 02:21:00,38.7,36.3,29.96,West,275,0.0,1.0,91,0.00,,---,0.00,VWS V15.00,2015-04-27 06:21:00,
2015-04-27 02:31:00,38.7,36.6,29.97,West,275,0.0,0.0,92,0.00,,---,0.00,VWS V15.00,2015-04-27 06:31:00,
2015-04-27 02:41:00,39.2,37.1,29.97,West,275,0.0,1.0,92,0.00,,---,0.00,VWS V15.00,2015-04-27 06:41:00,
2015-04-27 02:50:00,38.4,36.0,29.97,West,275,0.0,1.0,91,0.00,,---,0.00,VWS V15.00,2015-04-27 06:50:00,
2015-04-27 03:01:00,38.3,36.2,29.96,West,275,0.0,0.0,92,0.00,,---,0.00,VWS V15.00,2015-04-27 07:01:00,
2015-04-27 03:11:00,38.2,36.1,29.96,West,275,0.0,2.0,92,0.00,,---,0.00,VWS V15.00,2015-04-27 07:11:00,
2015-04-27 03:21:00,38.3,36.2,29.96,West,275,0.0,1.0,92,0.00,,---,0.00,VWS V15.00,2015-04-27 07:21:00,
2015-04-27 03:31:00,38.2,36.1,29.96,West,275,0.0,0.0,92,0.00,,---,0.00,VWS V15.00,2015-04-27 07:31:00,
2015-04-27 03:41:00,38.0,35.9,29.96,West,275,0.0,1.0,92,0.00,,---,0.00,VWS V15.00,2015-04-27 07:41:00,
2015-04-27 03:51:00,38.0,35.9,29.96,West,275,0.0,1.0,92,0.00,,---,0.00,VWS V15.00,2015-04-27 07:51:00,
2015-04-27 04:01:00,38.0,35.9,29.96,West,275,0.0,0.0,92,0.00,,---,0.00,VWS V15.00,2015-04-27 08:01:00,
2015-04-27 04:11:00,38.0,35.9,29.95,SW,219,0.0,2.0,92,0.00,,---,0.00,VWS V15.00,2015-04-27 08:11:00,
2015-04-27 04:20:00,37.8,35.7,29.95,SW,219,0.0,0.0,92,0.00,,---,0.00,VWS V15.00,2015-04-27 08:20:00,
2015-04-27 04:31:00,37.1,34.7,29.95,SW,219,0.0,1.0,91,0.00,,---,0.00,VWS V15.00,2015-04-27 08:31:00,
2015-04-27 04:41:00,36.6,34.5,29.96,SW,219,0.0,1.0,92,0.00,,---,0.00,VWS V15.00,2015-04-27 08:41:00,
2015-04-27 04:51:00,36.5,34.4,29.96,SW,219,0.0,1.0,92,0.00,,---,0.00,VWS V15.00,2015-04-27 08:51:00,
2015-04-27 05:01:00,36.4,34.6,29.96,SW,219,0.0,1.0,93,0.00,,---,0.00,VWS V15.00,2015-04-27 09:01:00,
2015-04-27 05:11:00,36.4,34.6,29.96,SW,219,0.0,1.0,93,0.00,,---,0.00,VWS V15.00,2015-04-27 09:11:00,
2015-04-27 05:21:00,36.3,34.5,29.95,SW,219,0.0,0.0,93,0.00,,---,0.00,VWS V15.00,2015-04-27 09:21:00,
2015-04-27 05:31:00,36.1,34.3,29.96,SW,219,0.0,1.0,93,0.00,,---,0.00,VWS V15.00,2015-04-27 09:31:00,
2015-04-27 05:41:00,35.5,33.7,29.96,SW,219,0.0,1.0,93,0.00,,---,0.00,VWS V15.00,2015-04-27 09:41:00,
2015-04-27 05:51:00,35.4,33.6,29.96,SW,234,0.0,2.0,93,0.00,,---,0.00,VWS V15.00,2015-04-27 09:51:00,
2015-04-27 06:01:00,35.3,33.5,29.97,SW,234,0.0,0.0,93,0.00,,---,0.00,VWS V15.00,2015-04-27 10:01:00,
2015-04-27 06:11:00,35.6,34.0,29.97,SW,234,0.0,1.0,94,0.00,,---,0.00,VWS V15.00,2015-04-27 10:11:00,
2015-04-27 06:21:00,35.7,33.9,29.98,SW,234,0.0,0.0,93,0.00,,---,0.00,VWS V15.00,2015-04-27 10:21:00,
2015-04-27 06:31:00,35.6,33.8,29.98,SW,234,0.0,0.0,93,0.00,,---,0.00,VWS V15.00,2015-04-27 10:31:00,
2015-04-27 06:41:00,35.4,33.6,29.98,SW,234,0.0,1.0,93,0.00,,---,0.00,VWS V15.00,2015-04-27 10:41:00,
2015-04-27 06:51:00,35.1,33.3,29.99,SW,234,0.0,1.0,93,0.00,,---,0.00,VWS V15.00,2015-04-27 10:51:00,
2015-04-27 07:01:00,34.6,32.8,29.98,SW,234,0.0,1.0,93,0.00,,---,0.00,VWS V15.00,2015-04-27 11:01:00,
2015-04-27 07:11:00,34.3,32.5,29.99,SW,234,0.0,0.0,93,0.00,,---,0.00,VWS V15.00,2015-04-27 11:11:00,
2015-04-27 07:21:00,34.4,32.9,29.99,SW,234,0.0,0.0,94,0.00,,---,0.00,VWS V15.00,2015-04-27 11:21:00,
2015-04-27 07:31:00,34.7,33.2,29.99,SW,234,0.0,0.0,94,0.00,,---,0.00,VWS V15.00,2015-04-27 11:31:00,
2015-04-27 07:41:00,35.5,34.0,30.00,SW,234,0.0,1.0,94,0.00,,---,0.00,VWS V15.00,2015-04-27 11:41:00,
2015-04-27 07:51:00,36.3,34.7,30.01,SW,234,0.0,1.0,94,0.00,,---,0.00,VWS V15.00,2015-04-27 11:51:00,
2015-04-27 08:01:00,37.1,35.5,30.02,SW,234,0.0,1.0,94,0.00,,---,0.00,VWS V15.00,2015-04-27 12:01:00,
2015-04-27 08:11:00,38.1,36.5,30.02,SW,234,1.0,1.0,94,0.00,,---,0.00,VWS V15.00,2015-04-27 12:11:00,
2015-04-27 08:21:00,39.6,38.0,30.02,SE,128,0.0,2.0,94,0.00,,---,0.00,VWS V15.00,2015-04-27 12:21:00,
2015-04-27 08:31:00,40.8,39.2,30.02,SE,128,0.0,1.0,94,0.00,,---,0.00,VWS V15.00,2015-04-27 12:31:00,
2015-04-27 08:41:00,42.5,40.9,30.02,South,188,0.0,1.0,94,0.00,,---,0.00,VWS V15.00,2015-04-27 12:41:00,
2015-04-27 08:51:00,44.5,42.6,30.03,WNW,302,0.0,2.0,93,0.00,,---,0.00,VWS V15.00,2015-04-27 12:51:00,
2015-04-27 09:01:00,46.2,42.5,30.03,West,263,2.0,4.0,87,0.00,,---,0.00,VWS V15.00,2015-04-27 13:01:00,
2015-04-27 09:11:00,47.0,41.8,30.03,WSW,250,1.0,4.0,82,0.00,,---,0.00,VWS V15.00,2015-04-27 13:11:00,
2015-04-27 09:21:00,47.7,41.8,30.03,WSW,255,1.0,5.0,80,0.00,,---,0.00,VWS V15.00,2015-04-27 13:21:00,
2015-04-27 09:31:00,48.5,43.3,30.03,NNE,26,2.0,5.0,82,0.00,,---,0.00,VWS V15.00,2015-04-27 13:31:00,
2015-04-27 09:41:00,49.9,42.3,30.03,NW,324,0.0,2.0,75,0.00,,---,0.00,VWS V15.00,2015-04-27 13:41:00,
2015-04-27 09:51:00,51.0,41.2,30.02,WNW,300,1.0,4.0,69,0.00,,---,0.00,VWS V15.00,2015-04-27 13:51:00,
2015-04-27 10:01:00,51.5,41.7,30.02,NNE,24,1.0,3.0,69,0.00,,---,0.00,VWS V15.00,2015-04-27 14:01:00,
2015-04-27 10:11:00,52.1,41.9,30.02,NNE,15,0.0,4.0,68,0.00,,---,0.00,VWS V15.00,2015-04-27 14:11:00,
2015-04-27 10:21:00,52.9,41.5,30.02,ESE,107,1.0,3.0,65,0.00,,---,0.00,VWS V15.00,2015-04-27 14:21:00,
2015-04-27 10:31:00,53.7,42.6,30.02,SW,236,2.0,3.0,66,0.00,,---,0.00,VWS V15.00,2015-04-27 14:31:00,
2015-04-27 10:41:00,54.6,42.7,30.02,NE,51,2.0,4.0,64,0.00,,---,0.00,VWS V15.00,2015-04-27 14:41:00,
2015-04-27 10:51:00,55.3,42.1,30.02,West,262,0.0,5.0,61,0.00,,---,0.00,VWS V15.00,2015-04-27 14:51:00,
2015-04-27 11:01:00,56.6,43.3,30.01,WNW,294,1.0,3.0,61,0.00,,---,0.00,VWS V15.00,2015-04-27 15:01:00,
2015-04-27 11:11:00,57.0,42.8,30.01,WNW,288,1.0,6.0,59,0.00,,---,0.00,VWS V15.00,2015-04-27 15:11:00,
2015-04-27 11:21:00,57.7,42.6,30.01,WNW,301,2.0,4.0,57,0.00,,---,0.00,VWS V15.00,2015-04-27 15:21:00,
2015-04-27 11:31:00,58.2,44.8,30.01,NE,44,1.0,7.0,61,0.00,,---,0.00,VWS V15.00,2015-04-27 15:31:00,
2015-04-27 11:41:00,58.3,44.5,30.01,West,275,5.0,7.0,60,0.00,,---,0.00,VWS V15.00,2015-04-27 15:41:00,
2015-04-27 11:51:00,58.7,42.1,30.02,NNW,342,3.0,6.0,54,0.00,,---,0.00,VWS V15.00,2015-04-27 15:51:00,
2015-04-27 12:01:00,58.8,41.7,30.02,WNW,295,3.0,9.0,53,0.00,,---,0.00,VWS V15.00,2015-04-27 16:01:00,
2015-04-27 12:11:00,58.7,42.1,30.03,NE,46,5.0,5.0,54,0.00,,---,0.00,VWS V15.00,2015-04-27 16:11:00,
2015-04-27 12:21:00,59.3,40.2,30.02,SE,134,2.0,10.0,49,0.00,,---,0.00,VWS V15.00,2015-04-27 16:21:00,
2015-04-27 12:31:00,59.5,43.3,30.03,NNE,15,1.0,9.0,55,0.00,,---,0.00,VWS V15.00,2015-04-27 16:31:00,
2015-04-27 12:41:00,60.1,42.9,30.03,ENE,65,3.0,7.0,53,0.00,,---,0.00,VWS V15.00,2015-04-27 16:41:00,
2015-04-27 12:51:00,59.7,41.0,30.03,NNW,340,1.0,7.0,50,0.00,,---,0.00,VWS V15.00,2015-04-27 16:51:00,
2015-04-27 13:01:00,60.1,42.4,30.03,NNE,24,2.0,6.0,52,0.00,,---,0.00,VWS V15.00,2015-04-27 17:01:00,